Simultaneous Nadir Overpasses (SNOs) Predictions

Prediction of SNOs between GOES-16 and TERRA Satellite Orbit:

Table of predicted SNOs for the next 14.0 days since TLE Epoch: 8/6/2022
Index Date Time (GOES-16) GOES-16 Lat,Lon TERRA Lat,Lon Distance(km) Time Diff (sec)
1 08/06/2022 15:01:18 -0.02, -75.21 -0.91, -70.87 492.71 80
2 08/07/2022 03:20:02 0.02, -75.20 -0.18, -76.06 99.18 80
3 08/09/2022 03:10:29 0.02, -75.20 0.48, -73.12 236.57 80
4 08/09/2022 15:31:43 -0.01, -75.21 0.67, -78.27 348.74 80
5 08/11/2022 15:16:50 -0.00, -75.22 0.00, -75.33 12.35 80
6 08/13/2022 15:04:36 -0.01, -75.24 -0.61, -72.38 325.19 80
7 08/14/2022 03:28:40 0.00, -75.24 -0.48, -77.58 265.87 80
8 08/16/2022 03:13:46 0.01, -75.26 0.14, -74.62 72.70 80
9 08/18/2022 03:01:32 0.01, -75.30 0.76, -71.67 412.01 80
10 08/18/2022 15:25:27 -0.00, -75.32 0.32, -76.83 172.64 80
